GEFSGL_con_cape1000_234.txt.gz
Probability
87 81 81 74 77 74 74 71 61 65 55 48 48 35 39 35 35 32 26 23 26 26 19 13 16 13 16 13 13 13 6 3 3 3 10 10 13 10 3 6 6 6 0
84 74 74 71 68 74 71 61 61 58 48 45 42 42 39 26 26 26 23 26 23 26 23 19 10 10 26 16 10 3 10 6 6 6 6 10 6 6 3 6 0 0 6
71 68 74 68 68 71 61 65 58 52 45 42 42 32 32 32 26 16 16 16 23 16 13 6 3 3 3 16 16 13 10 6 10 6 6 3 3 3 0 0 0 3 0
71 65 71 71 71 65 61 61 58 52 45 39 32 32 26 23 23 19 23 19 19 13 10 10 3 3 3 3 6 10 13 10 10 3 3 3 3 3 3 3 0 0 0
74 71 71 68 71 65 58 58 55 45 32 32 35 26 23 19 16 10 16 10 16 10 6 6 3 3 3 3 3 3 6 6 6 6 3 3 3 3 3 3 0 0 0
77 65 68 68 65 61 58 52 42 39 35 26 29 23 19 10 3 3 6 6 3 10 10 6 3 3 3 3 0 0 0 6 6 3 3 3 3 3 3 3 0 0 0
71 68 68 65 61 55 55 45 45 39 39 35 29 26 19 10 3 3 0 6 6 6 3 10 0 0 3 3 3 3 0 0 0 3 3 3 3 3 3 3 3 0 0
74 68 68 65 58 58 55 55 42 42 39 35 29 19 19 10 3 3 0 6 6 3 3 6 3 3 3 3 3 3 3 3 3 0 3 3 3 3 3 3 3 3 3
71 68 68 68 61 58 58 58 48 45 35 35 23 19 16 13 6 3 0 3 10 6 3 3 3 3 3 3 3 3 3 3 3 0 0 3 3 3 3 3 3 3 3
68 71 68 61 61 58 61 48 48 42 29 32 23 23 13 13 6 3 0 3 10 6 6 3 3 0 0 0 0 3 3 3 3 0 0 0 0 0 0 0 3 3 3
74 68 68 61 61 61 61 48 45 35 32 26 16 19 19 13 6 0 0 3 3 3 0 0 0 0 0 0 0 0 0 0 0 0 0 0 0 3 3 0 3 3 3
77 74 68 61 58 58 58 48 42 32 29 29 23 23 13 10 0 0 0 0 0 0 0 0 0 0 0 0 0 0 0 0 0 0 0 0 0 0 3 3 3 3 3
77 77 65 58 58 52 52 42 39 32 29 19 19 13 13 3 0 0 0 0 0 0 0 0 0 0 0 0 0 0 0 0 0 0 0 0 0 0 0 3 3 3 3
77 74 65 61 52 52 52 42 29 23 16 19 16 13 3 0 0 0 0 0 0 0 0 0 0 0 0 0 0 0 0 0 0 0 0 0 0 0 0 0 3 0 0
74 71 65 61 55 58 39 26 16 13 10 13 13 13 13 6 0 0 0 0 0 0 0 0 0 0 0 0 0 0 0 0 0 0 0 0 0 0 0 0 0 0 0
74 65 58 61 58 42 29 10 3 3 3 0 0 3 6 0 0 0 0 0 0 0 0 0 0 0 0 0 0 0 0 0 0 0 0 0 0 0 0 0 0 0 0
77 68 52 55 52 48 45 19 10 3 0 0 0 0 0 0 0 0 0 0 0 0 0 0 0 0 0 0 0 0 0 0 0 0 0 0 0 0 0 0 0 0 0
61 58 58 55 52 48 45 23 19 13 6 3 0 0 0 0 0 0 0 0 0 0 0 0 0 0 0 0 0 0 0 3 0 0 0 0 0 0 0 0 0 0 0
58 58 58 58 61 48 39 26 19 19 16 10 6 3 0 0 0 0 0 0 0 0 0 0 0 0 0 0 0 3 3 3 3 0 0 0 0 0 0 0 0 0 0
55 52 48 52 45 48 35 26 19 16 16 13 6 6 0 0 0 0 0 0 0 0 0 0 3 0 0 0 0 3 0 3 3 3 3 0 0 0 0 0 0 0 0
48 45 26 42 42 48 35 26 13 13 13 13 10 6 0 0 3 3 0 0 0 0 0 3 3 3 3 0 3 3 3 0 0 0 0 0 3 0 0 0 0 0 0
39 42 39 39 39 42 32 29 23 19 16 13 10 0 0 0 0 3 0 0 0 0 0 3 0 3 3 3 3 3 3 0 0 0 0 0 0 0 0 0 0 0 0
39 39 32 35 32 16 13 16 16 16 13 13 10 3 0 0 3 3 3 0 0 0 0 0 0 0 0 0 0 3 3 0 0 0 0 3 3 3 0 0 0 0 0
32 35 35 26 16 16 13 13 13 6 6 6 6 10 3 3 3 0 3 0 0 0 0 0 0 0 0 0 0 0 0 0 0 0 3 3 3 0 0 0 0 0 0
35 29 16 16 13 13 13 13 6 6 6 6 6 6 6 3 0 0 0 0 0 0 0 0 0 0 0 0 0 0 0 0 0 0 0 0 0 3 0 0 0 0 0
23 13 13 13 13 13 13 10 6 6 6 10 10 6 6 3 3 0 0 0 0 0 0 0 0 0 0 0 0 0 0 0 0 0 0 0 0 0 3 0 0 0 0

GEFSGL_con_cape1000_240.txt.gz
Probability
61 52 58 55 42 32 29 23 13 10 10 10 6 6 6 3 3 3 6 3 3 0 3 3 3 3 3 3 3 3 0 0 0 0 0 0 0 0 0 0 0 0 0
55 52 48 42 42 32 29 23 13 10 10 6 6 6 10 6 6 6 6 3 3 3 3 3 3 3 3 3 3 3 3 3 0 0 0 0 0 0 0 0 0 0 0
55 55 48 42 48 32 23 19 13 13 13 10 10 10 10 10 6 6 3 3 3 3 3 3 3 3 3 3 3 3 0 0 0 0 0 0 0 0 0 0 0 0 0
52 52 52 48 45 26 26 23 13 10 6 10 10 10 10 10 6 3 3 3 3 3 3 3 3 3 3 3 3 0 0 0 0 0 0 0 0 0 0 0 0 0 0
52 48 52 45 42 32 29 23 16 13 10 10 10 10 10 10 10 3 3 3 3 3 3 3 3 3 3 3 0 0 0 0 0 0 0 0 0 0 0 0 0 0 0
48 48 45 42 45 32 32 23 16 13 10 10 10 10 10 10 6 3 3 3 3 3 3 3 3 3 3 0 0 0 0 0 0 0 0 0 0 0 0 0 0 0 0
48 55 45 42 39 35 35 26 13 10 6 6 6 6 3 3 3 3 0 0 0 0 3 3 3 3 0 0 0 0 0 0 0 0 0 0 0 0 0 0 0 0 0
45 48 45 45 42 35 32 23 16 10 10 6 6 3 3 3 3 3 3 0 0 0 0 0 0 0 0 0 0 0 0 0 0 0 0 0 0 0 0 0 0 0 0
52 52 45 42 39 39 29 23 19 16 6 6 3 3 3 0 0 0 0 0 0 0 0 0 0 0 0 0 0 0 0 0 0 0 0 0 0 0 0 0 0 0 0
52 55 52 45 39 35 29 19 13 10 10 6 0 0 0 0 0 0 0 0 0 0 0 0 0 0 0 0 0 0 0 0 0 0 0 0 0 0 0 0 0 0 0
55 52 52 48 39 29 29 19 6 10 6 6 0 0 0 0 0 0 0 0 0 0 0 0 0 0 0 0 0 0 0 0 0 0 0 0 0 0 0 0 0 0 0
58 58 61 45 45 39 23 16 6 3 3 6 3 0 0 0 0 0 0 0 0 0 0 0 0 0 0 0 0 0 0 0 0 0 0 0 0 0 0 0 0 0 0
55 58 52 45 42 35 29 26 10 3 3 3 3 0 0 0 0 0 0 0 0 0 0 0 0 0 0 0 0 0 0 0 0 0 0 0 0 0 0 0 0 0 0
48 48 45 39 35 32 23 23 16 13 3 3 3 0 0 0 0 0 0 0 0 0 0 0 0 0 0 0 0 0 0 0 0 0 0 0 0 0 0 0 0 0 0
45 45 42 35 29 29 23 19 13 13 13 3 3 0 0 0 0 0 0 0 0 0 0 0 0 0 0 0 0 0 0 0 0 0 0 0 0 0 0 0 0 0 0
42 42 42 32 32 26 23 13 6 6 0 0 0 0 0 0 0 0 0 0 0 0 0 0 0 0 0 0 0 0 0 0 0 0 0 0 0 0 0 0 0 0 0
39 32 35 29 29 26 23 13 10 0 0 0 0 0 0 0 0 0 0 0 0 0 0 0 0 0 0 0 0 0 0 0 0 0 0 0 0 0 0 0 0 0 0
39 32 32 26 26 29 23 19 10 6 6 0 0 0 0 0 0 0 0 0 0 0 0 0 0 0 0 0 0 0 0 0 0 0 0 0 0 0 0 0 0 0 0
42 39 32 26 26 26 23 19 16 6 6 6 0 0 0 0 0 0 0 0 0 0 0 0 0 0 0 0 0 0 0 0 0 0 0 0 0 0 0 0 0 0 0
35 29 29 29 23 19 16 16 16 13 6 3 0 0 0 0 0 0 0 0 0 0 0 0 0 0 0 0 0 0 0 0 0 0 0 0 0 0 0 0 0 0 0
26 23 16 19 16 16 16 16 16 16 10 6 6 0 0 0 0 0 0 0 0 0 0 0 0 0 0 0 0 0 0 0 0 0 0 0 0 0 0 0 0 0 0
29 26 16 19 13 13 10 13 13 13 6 6 3 0 0 0 0 0 0 0 0 0 0 0 0 0 0 0 0 0 0 0 0 0 0 0 0 0 0 0 0 0 0
29 26 16 13 10 6 6 6 10 13 6 6 3 0 0 0 0 0 0 0 0 0 0 0 0 0 0 0 0 0 0 0 0 0 0 0 0 0 0 0 0 0 0
19 19 13 10 10 13 13 6 6 6 6 3 3 0 0 0 0 0 0 0 0 0 0 0 0 0 0 0 0 0 0 0 0 0 0 0 0 0 0 0 0 0 0
19 19 13 13 6 6 6 3 3 6 3 0 0 0 0 0 0 0 0 0 0 0 0 0 0 0 0 0 0 0 0 0 0 0 0 0 0 0 0 0 0 0 0
23 23 16 10 3 3 3 3 3 3 3 3 0 0 0 0 0 0 0 0 0 0 0 0 0 0 0 0 0 0 0 0 0 0 0 0 0 0 0 0 0 0 0

GEFSGL_con_cape1000_246.txt.gz
Probability
23 19 26 19 16 16 16 16 6 6 6 6 3 3 3 3 3 3 3 0 0 0 0 0 3 3 3 3 3 3 0 0 0 0 0 0 0 0 0 0 0 0 0
23 19 23 23 16 16 16 13 6 6 10 6 6 6 6 3 3 3 3 0 0 3 3 3 3 3 3 3 3 3 3 0 0 0 0 0 0 0 0 0 0 0 0
19 26 26 26 23 19 16 13 13 10 6 6 6 6 6 6 6 6 0 0 3 3 3 3 3 3 3 3 3 3 0 0 0 0 0 0 0 0 0 0 0 0 0
23 26 23 26 26 26 19 16 13 10 6 6 6 6 6 10 10 6 3 3 3 3 3 3 3 3 3 3 3 3 0 0 0 0 0 0 0 0 0 0 0 0 0
26 26 26 26 26 23 16 19 16 10 6 6 6 6 3 6 3 0 0 3 3 3 3 3 3 0 0 0 0 0 0 0 0 0 0 0 0 0 0 0 0 0 0
32 26 23 26 23 16 19 23 19 6 3 3 3 3 3 3 0 0 0 3 3 3 0 0 0 0 0 0 0 0 0 0 0 0 0 0 0 0 0 0 0 0 0
29 32 29 26 26 23 19 16 19 10 6 3 3 3 3 3 0 0 0 0 0 0 0 0 0 0 0 0 0 0 0 0 0 0 0 0 0 0 0 0 0 0 0
32 32 35 32 32 19 16 13 16 13 6 6 3 3 3 3 0 0 0 0 0 0 0 0 0 0 0 0 0 0 0 0 0 0 0 0 0 0 0 0 0 0 0
35 32 39 35 29 19 16 13 10 10 10 6 6 3 3 0 0 0 0 0 0 0 0 0 0 0 0 0 0 0 0 0 0 0 0 0 0 0 0 0 0 0 0
39 42 35 35 29 23 16 6 6 6 6 6 3 3 0 0 0 0 0 0 0 0 0 0 0 0 0 0 0 0 0 0 0 0 0 0 0 0 0 0 0 0 0
35 35 39 35 35 26 10 6 6 6 6 6 6 0 0 0 0 0 0 0 0 0 0 0 0 0 0 0 0 0 0 0 0 0 0 0 0 0 0 0 0 0 0
35 42 39 35 39 26 13 10 3 6 6 6 6 0 0 0 0 0 0 0 0 0 0 0 0 0 0 0 0 0 0 0 0 0 0 0 0 0 0 0 0 0 0
39 32 32 26 26 23 16 6 10 6 6 10 6 3 0 0 0 0 0 0 0 0 0 0 0 0 0 0 0 0 0 0 0 0 0 0 0 0 0 0 0 0 0
35 32 29 26 23 16 23 16 10 10 10 10 6 3 3 0 0 0 0 0 0 0 0 0 0 0 0 0 0 0 0 0 0 0 0 0 0 0 0 0 0 0 0
35 29 26 23 16 16 16 19 23 13 13 10 10 3 3 0 0 0 0 0 0 0 0 0 0 0 0 0 0 0 0 0 0 0 0 0 0 0 0 0 0 0 0
35 32 32 29 19 19 19 13 0 0 0 0 0 0 3 0 0 0 0 0 0 0 0 0 0 0 0 0 0 0 0 0 0 0 0 0 0 0 0 0 0 0 0
32 32 32 29 19 19 19 19 16 0 0 0 0 0 0 0 0 0 0 0 0 0 0 0 0 0 0 0 0 0 0 0 0 0 0 0 0 0 0 0 0 0 0
32 29 32 23 23 26 23 19 19 13 6 6 0 0 0 0 0 0 0 0 0 0 0 0 0 0 0 0 0 0 0 0 0 0 0 0 0 0 0 0 0 0 0
32 32 32 29 29 26 19 19 19 16 16 10 6 0 0 0 0 0 0 0 0 0 0 0 0 0 0 0 0 0 0 0 0 0 0 0 0 0 0 0 0 0 0
29 29 29 32 26 23 19 19 16 16 13 13 10 3 0 0 0 0 0 0 0 0 0 0 0 0 0 0 0 0 0 0 0 0 0 0 0 0 0 0 0 0 0
23 16 16 26 26 19 19 23 23 16 16 13 13 6 0 0 0 0 0 0 0 0 0 0 0 0 0 0 0 0 0 0 0 0 0 0 0 0 0 0 0 0 0
16 13 19 23 19 19 13 13 13 16 19 19 16 3 0 0 0 0 0 0 0 0 0 0 0 0 0 0 0 0 0 0 0 0 0 0 0 0 0 0 0 0 0
13 10 13 16 16 10 10 10 10 10 10 10 10 10 0 0 0 0 0 0 0 0 0 0 0 0 0 0 0 0 0 0 0 0 0 0 0 0 0 0 0 0 0
16 13 10 6 3 3 6 10 6 6 10 10 6 6 0 0 0 0 0 0 0 0 0 0 0 0 0 0 0 0 0 0 0 0 0 0 0 0 0 0 0 0 0
16 16 10 6 3 3 3 3 6 10 6 6 6 3 3 0 0 0 0 0 0 0 0 0 0 0 0 0 0 0 0 0 0 0 0 0 0 0 0 0 0 0 0
16 16 13 10 3 3 3 3 0 3 3 3 3 3 3 3 0 0 0 0 0 0 0 0 0 0 0 0 0 0 0 0 0 0 0 0 0 0 0 0 0 0 0

GEFSGL_con_cape1000_252.txt.gz
Probability
77 77 81 71 65 61 55 55 55 55 55 55 52 52 45 42 39 32 19 19 16 16 13 13 16 16 19 16 16 13 13 16 13 6 10 6 6 6 6 6 6 6 3
77 77 71 61 61 61 52 55 52 52 52 48 48 48 42 39 35 32 19 19 19 19 16 13 10 13 19 16 19 16 19 16 10 13 10 6 10 6 6 6 6 3 3
71 68 68 65 61 61 58 55 55 52 52 48 48 48 39 39 29 19 13 16 23 23 19 13 10 13 16 13 13 13 16 13 13 13 13 6 3 3 3 6 3 3 3
65 65 68 65 65 65 58 55 55 52 48 48 48 45 35 32 32 26 10 16 19 19 13 10 6 6 10 10 10 13 10 13 13 10 10 10 6 3 3 3 10 6 3
68 65 65 65 68 68 65 61 55 52 45 48 45 42 39 32 32 26 13 10 13 6 10 10 3 3 3 3 3 6 13 6 10 6 3 0 0 3 3 3 3 6 6
71 71 65 65 65 68 65 65 58 48 45 45 42 39 35 23 6 3 3 10 10 6 10 10 10 3 0 0 0 0 0 0 6 6 0 0 0 0 0 0 0 0 0
71 71 65 65 65 65 61 61 58 55 48 45 42 39 39 23 6 3 3 3 10 6 10 10 6 6 0 0 0 0 0 0 0 3 3 0 0 3 0 0 0 3 0
74 71 71 65 65 65 61 58 55 55 55 52 45 39 39 19 0 0 0 6 10 6 3 10 10 6 3 0 0 0 0 0 0 0 3 3 0 0 3 3 0 0 0
74 74 71 68 68 61 61 61 55 55 55 48 48 48 39 19 3 0 0 6 6 6 6 3 3 6 3 0 0 0 0 0 0 0 0 0 0 0 0 0 0 0 0
74 71 68 68 68 65 61 61 55 55 52 45 45 42 35 29 6 0 0 6 3 3 6 3 0 0 3 0 0 0 0 3 0 0 0 0 0 0 0 0 0 0 0
74 71 68 68 68 71 68 65 61 52 48 48 42 39 32 29 6 0 0 6 3 3 3 0 0 0 0 0 0 0 0 0 0 0 0 0 0 0 0 0 0 0 0
71 71 68 68 68 68 71 65 58 55 45 45 48 42 29 29 10 0 0 0 3 6 3 0 0 0 0 0 0 0 0 0 0 0 0 0 0 0 0 0 0 0 0
65 68 68 68 68 68 65 61 61 55 39 42 39 32 35 26 13 0 0 0 0 3 3 0 0 0 0 0 0 0 0 0 0 0 0 0 0 0 0 0 0 0 0
61 65 68 68 61 61 61 52 52 48 45 39 35 29 32 35 23 13 6 0 0 0 0 0 0 0 0 0 0 0 0 0 0 0 0 0 0 0 0 0 0 0 0
58 58 58 58 58 55 55 45 48 48 45 45 45 35 32 32 23 6 6 10 6 3 0 3 3 0 0 0 0 0 0 0 0 0 0 0 0 0 0 0 0 0 0
58 55 52 55 55 52 55 45 29 29 10 3 16 13 19 13 0 0 0 0 0 0 0 3 3 3 3 3 0 0 0 0 0 0 0 0 0 0 0 0 0 0 0
55 52 48 48 58 58 48 48 42 19 0 0 0 0 3 0 0 0 0 0 0 0 0 3 3 3 3 3 3 0 0 0 0 0 0 0 0 0 0 0 0 3 6
55 48 48 45 39 45 42 42 45 39 32 32 3 0 0 0 0 0 0 0 0 0 0 0 0 3 3 3 0 3 3 3 3 3 3 3 3 3 0 0 6 6 3
48 48 48 45 48 48 45 42 42 39 39 35 26 10 0 0 0 0 0 0 0 0 0 0 0 3 3 3 3 3 3 6 6 6 3 6 3 3 6 3 3 3 0
45 35 42 42 39 39 42 39 35 35 35 32 32 23 10 0 6 0 0 0 0 3 3 0 3 3 6 3 6 6 3 3 6 6 3 6 6 6 3 6 3 0 3
29 26 26 29 29 29 29 32 35 29 29 29 26 19 10 10 13 10 6 6 0 3 3 10 10 10 10 6 6 6 6 6 3 6 6 6 3 3 0 3 3 3 0
26 26 23 26 26 23 26 26 23 23 19 23 19 16 3 10 13 10 10 10 3 6 13 10 10 10 10 6 6 10 6 6 6 6 3 0 0 0 0 0 0 0 0
29 23 23 23 23 16 13 19 19 16 16 13 16 16 10 13 10 10 13 13 13 13 13 13 10 10 10 6 6 6 6 6 6 6 3 0 0 0 0 0 0 0 0
23 23 19 16 23 19 16 16 13 13 10 13 13 13 13 13 10 10 10 10 10 13 13 13 10 10 10 6 6 3 3 3 3 3 3 3 3 0 0 0 0 0 0
16 19 19 19 19 19 19 16 13 16 13 13 13 13 10 6 10 10 10 10 10 13 10 13 13 10 10 3 3 3 0 0 0 3 3 3 0 0 0 0 0 0 0
19 19 19 19 19 19 19 16 16 13 13 13 13 10 10 6 6 6 10 10 10 10 10 3 6 3 3 3 3 3 0 0 0 0 0 0 0 0 0 0 0 0 0

GEFSGL_con_cape1000_258.txt.gz
Probability
87 84 81 81 77 71 71 65 68 61 58 55 52 48 55 58 58 52 45 35 42 42 39 32 29 39 32 39 32 35 26 16 13 6 10 10 10 3 0 3 3 3 0
84 84 81 77 74 68 65 68 61 68 65 58 55 48 45 48 48 42 35 35 29 32 35 32 19 16 16 35 29 29 23 16 10 3 6 10 6 6 6 10 3 3 3
84 84 74 71 71 68 65 65 65 65 65 65 58 52 48 45 45 42 39 39 32 29 32 23 19 19 19 23 23 23 19 6 16 6 6 6 3 3 3 0 3 0 0
81 77 74 71 71 71 65 65 65 65 68 65 61 58 48 48 42 39 35 35 35 29 32 23 19 10 19 23 16 19 16 16 13 10 6 3 6 0 0 0 0 0 0
84 71 74 77 71 71 68 65 65 61 61 65 61 58 52 45 42 42 32 29 32 32 32 26 13 10 10 10 13 19 13 16 10 10 0 0 0 0 0 0 0 0 0
84 77 77 77 71 71 65 61 61 61 61 65 61 55 52 32 19 19 23 32 39 39 35 29 10 10 10 3 0 0 0 6 3 6 0 0 0 0 0 0 0 0 0
81 77 77 77 77 68 61 61 61 61 61 58 58 52 52 26 19 16 13 32 35 35 35 29 13 6 6 6 3 0 0 0 0 0 10 6 3 3 0 0 0 0 0
77 77 77 77 77 71 68 65 61 58 61 61 58 55 48 26 10 10 3 16 29 35 29 26 13 6 10 10 10 3 3 3 0 3 6 10 6 6 3 3 3 3 3
77 77 74 71 71 68 68 68 65 65 65 61 61 52 48 26 10 6 0 19 19 29 19 19 13 6 6 0 10 6 6 6 0 0 0 0 0 0 0 0 0 0 0
71 71 68 74 68 68 68 68 68 65 65 58 55 48 45 32 10 6 0 13 16 19 23 19 3 0 0 0 3 10 6 6 6 3 0 0 0 0 0 0 0 0 0
61 61 61 71 74 74 71 65 68 65 61 61 55 52 52 39 16 6 0 13 16 16 10 13 13 3 0 0 0 10 6 6 6 3 6 0 0 0 0 0 0 0 0
65 68 65 68 61 58 71 68 65 65 65 65 55 58 55 42 19 6 3 0 6 19 16 13 13 0 0 0 0 0 0 0 3 6 3 0 0 0 0 0 0 0 0
65 65 65 61 65 65 71 68 68 65 61 55 52 52 48 45 23 16 3 0 0 3 13 10 3 0 0 0 0 0 0 0 0 0 0 0 0 0 0 3 3 0 0
65 61 61 61 52 58 61 55 58 58 55 52 48 45 42 45 35 16 6 0 0 0 3 3 0 0 0 0 0 0 0 0 0 0 0 0 0 0 0 0 0 0 0
58 58 58 58 52 52 52 45 48 45 42 45 42 42 39 39 35 26 16 10 10 3 0 0 0 0 0 0 0 0 0 0 0 0 0 0 0 0 0 0 0 0 0
52 52 52 55 55 55 52 45 26 26 26 26 26 35 32 19 13 3 6 6 6 3 0 3 3 3 3 3 3 3 0 0 0 0 0 0 0 0 0 0 0 0 0
52 55 48 52 52 52 52 52 48 23 3 0 0 0 10 6 0 0 0 0 0 0 0 3 3 6 6 3 3 3 3 3 3 3 3 0 0 0 0 0 0 0 0
48 48 48 52 52 52 52 55 52 48 45 26 6 0 0 0 0 0 0 0 0 0 6 6 6 6 10 6 10 10 10 6 3 3 3 3 3 0 0 0 0 0 6
48 48 48 48 48 48 45 48 48 48 39 39 29 6 0 0 0 0 0 0 10 3 3 6 3 3 6 10 13 10 10 10 10 10 6 0 3 3 3 3 3 3 0
45 39 42 42 42 45 39 42 42 39 35 35 32 26 3 0 3 0 0 0 10 10 16 10 3 6 10 10 16 16 10 10 10 10 6 6 3 3 3 3 3 3 3
35 29 19 29 32 32 35 39 39 39 35 32 26 23 10 10 10 10 3 0 0 10 13 10 16 13 13 13 16 16 16 10 10 6 6 6 6 6 3 3 3 0 0
29 26 23 23 23 23 26 26 32 32 29 29 26 23 3 13 19 13 13 13 6 10 19 13 6 10 16 16 16 16 16 10 10 6 10 10 6 6 6 3 0 0 0
29 26 19 19 19 13 13 19 19 23 26 26 19 19 6 16 19 19 19 16 16 13 16 16 19 16 16 16 16 16 16 13 13 13 10 10 6 6 3 3 0 0 0
19 19 19 19 16 16 19 19 19 16 16 16 19 16 16 16 13 16 16 16 16 16 16 16 16 16 19 16 16 13 13 13 13 10 10 10 3 3 3 3 3 0 0
19 19 16 16 19 13 16 16 13 16 13 13 16 16 19 16 16 13 10 10 13 16 13 13 19 16 13 13 13 13 6 0 0 6 6 10 3 3 3 3 3 3 0
16 16 16 13 13 13 16 13 16 16 19 19 19 16 16 10 10 13 13 10 10 10 6 6 13 13 16 13 13 10 0 0 0 0 0 3 3 3 3 3 3 3 0

GEFSGL_con_cape1000_264.txt.gz
Probability
48 45 52 48 39 35 35 32 32 32 35 35 35 23 19 16 13 13 13 13 6 6 6 6 6 3 0 0 0 0 0 0 0 0 0 0 0 0 0 0 0 0 0
48 52 42 45 42 42 32 35 32 29 35 35 32 32 32 32 23 16 13 13 10 10 6 6 6 6 3 3 0 0 0 0 0 0 0 0 0 0 0 0 0 0 0
52 52 45 39 45 35 39 39 39 35 35 32 32 32 32 32 29 23 19 16 13 10 10 6 3 6 3 0 0 0 0 0 0 0 0 0 0 0 0 0 0 0 0
52 45 42 48 42 39 39 42 39 39 35 35 32 32 32 32 26 19 19 19 13 10 13 6 6 3 3 0 0 0 0 0 0 0 0 0 0 0 0 0 0 0 0
48 42 35 42 45 35 42 45 42 45 42 35 32 32 26 26 19 23 26 19 16 16 13 6 6 6 6 3 3 3 0 0 0 0 0 0 0 0 0 0 0 0 0
42 45 42 39 45 52 42 45 52 42 45 35 35 29 23 23 19 19 19 19 23 16 13 10 10 6 6 3 0 0 0 0 0 0 0 0 0 0 0 0 0 0 0
32 45 45 48 45 52 52 35 42 42 39 35 32 29 23 16 16 16 13 16 16 13 10 13 10 10 6 0 0 0 0 0 0 0 0 0 0 0 0 0 0 0 0
35 45 55 52 45 52 52 48 35 35 35 29 29 29 19 16 16 10 6 16 16 10 10 10 6 6 6 3 0 0 0 0 0 0 0 0 0 0 0 0 0 0 0
39 42 48 45 45 45 45 39 39 39 39 29 26 23 23 19 16 6 6 16 16 10 10 6 6 3 3 0 0 0 0 0 0 0 0 0 0 0 0 0 0 0 0
42 42 45 48 45 45 45 39 32 35 35 23 26 23 23 16 16 6 6 16 13 13 6 6 3 3 3 0 0 0 0 0 0 0 0 0 0 0 0 0 0 0 0
35 42 42 48 42 45 42 39 35 32 19 23 23 23 26 19 16 6 0 10 6 6 6 3 3 3 3 0 0 0 0 0 0 0 0 0 0 0 0 0 0 0 0
39 42 42 42 45 48 35 35 35 29 26 16 19 19 29 23 10 6 3 0 6 6 6 3 3 3 0 0 0 0 0 0 0 0 0 0 0 0 0 0 0 0 0
39 42 42 42 45 39 35 39 35 29 29 26 23 26 23 19 13 10 3 0 0 6 6 3 3 3 0 0 0 0 0 0 0 0 0 0 0 0 0 0 0 0 0
35 35 35 32 35 39 39 35 35 32 29 26 23 23 26 23 13 13 6 3 3 0 0 3 3 0 0 0 0 0 0 0 0 0 0 0 0 0 0 0 0 0 0
35 35 39 35 35 29 29 32 29 29 32 23 19 16 19 23 23 16 10 3 3 6 3 3 0 0 0 0 0 0 0 0 0 0 0 0 0 0 0 0 0 0 0
35 39 39 35 32 29 26 23 23 26 19 6 10 16 16 19 10 0 0 0 0 3 0 6 6 3 3 3 3 0 0 0 0 0 0 0 0 0 0 0 0 0 0
42 42 39 35 32 29 26 26 26 13 0 0 0 0 0 3 0 0 0 0 0 0 0 3 3 3 3 3 3 0 0 0 0 0 0 0 0 0 0 0 0 0 0
39 39 39 39 39 32 32 26 26 26 23 13 0 0 0 0 0 0 0 0 0 0 0 3 3 3 3 3 3 3 0 0 0 0 0 0 0 0 0 0 0 0 0
29 35 39 39 39 35 32 32 26 23 26 19 13 3 0 0 0 0 0 0 0 0 0 0 6 6 6 6 6 6 6 3 3 0 0 0 0 0 0 0 0 0 0
26 26 29 32 35 29 29 29 23 23 23 16 10 6 3 3 3 0 0 0 0 0 0 0 0 3 3 6 3 3 3 0 0 0 0 0 0 0 0 0 0 0 0
19 19 23 23 23 23 23 19 23 16 16 13 10 10 6 3 3 3 3 0 0 0 0 0 0 3 3 0 0 3 3 0 0 0 0 0 0 0 0 0 0 0 0
13 16 13 16 16 13 13 10 10 13 13 13 10 10 3 3 3 3 3 0 0 0 0 0 0 0 0 3 3 3 3 3 0 0 0 0 0 0 0 0 0 0 0
13 13 10 10 13 10 6 6 6 6 6 10 10 10 6 3 3 3 3 3 0 0 0 0 0 0 0 0 0 0 0 0 0 0 0 0 0 0 0 0 0 0 0
3 6 3 6 10 6 6 6 6 6 6 6 6 6 6 0 0 3 3 3 3 0 0 0 0 0 0 0 0 0 0 0 0 0 0 0 0 0 0 0 0 0 0
6 3 3 3 3 3 6 6 6 6 6 6 6 6 6 0 0 0 0 0 3 0 0 0 0 0 0 0 0 0 0 0 0 0 0 0 0 0 0 0 0 0 0
6 3 3 0 3 3 3 3 3 3 3 3 3 3 0 0 0 0 0 0 0 0 0 0 0 0 0 0 0 0 0 0 0 0 0 0 0 0 0 0 0 0 0

GEFSGL_con_cape1000_270.txt.gz
Probability
10 13 16 13 10 16 16 16 16 16 13 16 19 23 19 16 13 13 13 6 10 10 10 6 6 6 6 3 0 0 0 0 0 0 0 0 0 0 0 0 0 0 0
19 13 16 10 16 16 16 16 16 16 19 23 23 26 23 23 16 13 13 13 10 10 10 10 6 6 6 6 0 0 0 0 0 0 0 0 0 0 0 0 0 0 0
19 23 19 10 16 16 23 23 19 19 23 23 23 32 32 29 23 16 13 13 13 6 6 6 6 3 3 3 3 0 0 0 0 0 0 0 0 0 0 0 0 0 0
23 19 19 16 23 23 23 23 19 23 26 26 23 29 32 32 29 19 16 16 16 16 13 6 6 3 3 3 3 3 0 0 0 0 0 0 0 0 0 0 0 0 0
23 19 23 19 23 19 19 19 19 19 23 23 19 23 29 29 29 23 19 19 19 19 16 16 16 13 3 3 3 3 3 0 0 0 0 0 0 0 0 0 0 0 0
19 23 29 26 19 23 23 19 23 23 26 23 19 23 29 26 16 16 16 19 19 19 16 16 16 13 10 3 3 3 3 3 0 0 3 0 0 0 0 0 0 0 0
19 26 26 19 19 19 26 26 26 26 26 26 23 23 23 19 6 13 13 16 19 19 16 13 13 13 6 6 3 3 3 0 0 6 6 3 0 0 0 0 0 0 0
16 23 26 26 26 19 23 26 26 26 26 26 23 16 19 13 3 6 6 10 13 13 13 13 10 10 3 3 3 3 3 3 3 0 3 3 0 0 0 0 0 0 0
13 23 26 26 26 23 23 26 26 26 26 26 16 10 13 13 6 3 0 10 13 13 13 13 10 6 3 3 3 3 3 3 3 0 0 0 0 0 0 0 0 0 0
16 19 23 23 26 26 23 29 29 29 23 16 13 10 13 13 13 6 3 6 13 13 13 10 6 6 3 3 3 3 3 3 3 3 0 0 0 0 0 0 0 0 0
13 19 23 23 23 23 29 32 26 23 23 16 13 10 13 13 13 3 3 6 6 10 6 6 10 3 0 0 0 3 3 3 3 3 0 0 0 0 0 0 0 0 0
19 19 23 19 19 23 26 29 23 23 23 13 13 13 13 13 10 6 3 0 3 3 6 6 6 0 0 0 0 0 0 0 3 3 0 0 0 0 0 0 0 0 0
16 16 16 16 23 19 26 26 26 26 26 23 23 19 13 10 6 0 0 0 0 0 3 6 3 0 0 0 0 0 0 0 0 3 0 0 0 0 0 0 0 0 0
16 19 19 23 19 19 26 26 26 26 26 23 26 26 23 13 6 3 0 0 0 0 0 0 0 0 0 0 0 0 0 0 0 3 0 0 0 0 0 0 0 0 0
16 13 13 16 19 19 26 23 26 23 23 26 23 26 26 26 10 6 3 0 0 0 0 0 0 3 3 3 3 6 3 0 0 0 0 0 0 0 0 0 0 0 0
13 16 16 13 16 19 19 23 19 23 16 16 13 19 19 16 10 0 0 0 0 0 0 3 3 3 3 3 6 6 3 3 3 0 0 0 0 0 0 0 0 0 0
10 13 19 16 23 23 23 23 26 13 6 0 0 0 3 3 0 0 0 0 0 0 0 0 3 3 3 3 3 3 3 3 3 0 0 0 0 0 0 0 0 0 0
13 10 10 19 19 23 23 29 29 29 26 19 3 0 0 0 0 0 0 0 0 0 0 3 3 3 3 3 3 6 6 3 3 3 0 0 0 0 0 0 0 0 0
19 16 19 26 29 26 26 26 26 26 23 23 16 6 0 0 0 0 0 0 0 0 0 0 0 3 3 3 3 10 10 10 6 6 6 3 0 0 0 0 3 0 0
19 13 19 19 23 19 19 23 26 23 19 19 19 10 3 3 3 3 0 0 0 0 0 0 0 0 3 3 3 3 10 6 3 6 6 6 6 0 0 0 0 0 3
16 16 10 16 19 23 19 16 16 16 19 19 16 13 3 3 3 6 6 3 3 3 0 3 3 3 6 3 3 0 0 0 0 6 6 3 3 3 0 0 0 0 0
10 13 13 13 16 13 13 16 13 13 10 13 10 6 3 3 6 3 6 6 6 6 6 6 6 6 3 3 3 3 3 3 3 0 0 0 0 0 0 0 0 0 0
10 10 6 10 13 10 10 10 10 6 6 10 6 6 6 3 6 6 6 6 6 6 6 6 6 6 6 3 3 0 0 0 0 0 0 0 0 0 0 0 0 0 0
6 3 3 3 10 6 6 10 6 6 3 3 3 3 0 3 6 6 6 6 10 10 6 6 6 6 6 6 0 0 0 0 0 0 0 0 0 0 0 0 0 0 0
0 0 0 3 3 3 3 3 3 3 3 3 3 3 0 0 0 0 0 3 3 3 6 6 6 6 6 6 3 3 0 0 0 0 0 0 0 0 0 0 0 0 0
0 0 0 3 3 3 3 3 3 3 0 0 0 0 0 0 0 0 0 0 3 3 3 3 3 3 3 0 0 0 0 0 0 0 0 0 0 0 0 0 0 0 0